Temp
10 10 10 10 10 10 10 10 10 10 10 9 9 9 9 8 8 8 8 7 7 7 7 7 7 6 6 6 6 6 6 6 6 6 5 5 5 5 5 5 5 5 4 4 4 4 4 4 4 4 3 3 3 3 3 3 3 2 2 2 2 2 2 2 2 2 2 2 2
10 10 10 10 10 10 10 10 10 10 9 9 9 8 8 8 8 8 7 7 7 7 7 7 6 6 6 6 6 6 6 6 6 5 5 5 5 5 5 5 4 4 4 4 4 4 4 4 4 3 3 3 3 3 3 3 2 2 2 2 2 2 2 2 2 2 2 1 1
10 10 10 10 10 10 10 10 9 9 9 9 8 8 8 8 8 7 7 7 7 7 7 6 6 6 6 6 6 6 6 6 5 5 5 5 5 5 5 4 4 4 4 4 4 4 4 3 3 3 3 3 3 3 3 2 2 2 2 2 2 2 2 2 2 1 1 1 1
10 10 10 10 10 10 10 9 9 9 9 8 8 8 8 8 8 7 7 7 7 7 6 6 6 6 6 6 5 5 5 5 5 5 5 5 5 5 4 4 4 4 4 4 4 3 3 3 3 3 3 3 3 3 3 2 2 2 2 2 2 2 2 2 1 1 1 1 1
10 10 10 10 10 10 9 9 9 9 8 8 8 8 8 8 7 7 7 7 7 6 6 6 6 6 5 5 5 5 5 5 5 5 5 5 5 5 4 4 4 4 4 4 3 3 3 3 3 3 3 3 3 3 2 2 2 2 2 2 2 2 2 1 1 1 1 1 1
10 10 10 10 10 9 9 9 9 8 8 8 8 8 8 8 7 7 7 7 6 6 6 6 6 5 5 5 5 5 5 5 5 5 5 5 5 4 4 4 4 4 4 3 3 3 3 3 3 3 3 3 3 3 2 2 2 2 2 2 2 2 2 1 1 1 1 1 1
10 10 10 10 9 9 9 9 8 8 8 8 8 8 8 7 7 7 6 6 6 6 6 6 5 5 5 5 5 5 5 5 5 5 5 5 4 4 4 4 4 4 3 3 3 3 3 3 3 3 3 3 3 2 2 2 2 2 2 2 2 2 2 1 1 1 1 1 1
10 10 10 10 9 9 9 8 8 8 8 8 8 7 7 7 6 6 6 6 6 6 6 6 5 5 5 5 5 5 5 5 5 5 5 4 4 4 4 4 4 3 3 3 3 3 3 3 3 3 3 3 2 2 2 2 2 2 2 2 2 1 1 1 1 1 1 1 0
10 10 9 9 9 9 8 8 8 8 8 7 7 7 7 6 6 6 6 6 6 6 5 5 5 5 5 5 5 5 5 5 5 5 4 4 4 4 4 3 3 3 3 3 3 3 3 3 3 2 2 2 2 2 2 2 2 2 2 1 1 1 1 1 1 1 0 0 0
10 9 9 9 8 8 8 8 8 7 7 7 7 6 6 6 6 6 6 6 6 5 5 5 5 5 5 5 5 5 5 5 4 4 4 4 4 4 3 3 3 3 3 3 3 3 3 2 2 2 2 2 2 2 2 2 2 1 1 1 1 1 1 1 0 0 0 -0 -0
9 9 8 8 8 8 7 7 7 7 7 6 6 6 6 6 6 6 6 6 5 5 5 5 5 5 5 5 5 5 4 4 4 4 4 4 3 3 3 3 3 3 3 3 2 2 2 2 2 2 2 2 2 2 2 1 1 1 1 1 1 1 1 0 0 -0 -0 -1 -1
9 8 8 8 7 7 7 7 7 6 6 6 6 6 6 6 6 6 6 5 5 5 5 5 5 5 5 5 4 4 4 4 4 4 3 3 3 3 3 3 3 3 2 2 2 2 2 2 2 2 2 2 2 2 1 1 1 1 1 1 1 0 0 -0 -0 -1 -1 -1 -1
8 8 7 7 7 7 7 6 6 6 6 6 6 6 6 6 6 6 5 5 5 5 5 5 5 5 5 4 4 4 4 4 4 3 3 3 3 3 3 3 2 2 2 2 2 2 2 2 2 2 1 1 1 1 1 1 1 1 1 0 0 -0 -0 -1 -1 -1 -1 -1 -1
8 7 7 7 7 7 6 6 6 6 6 6 6 6 6 6 5 5 5 5 5 5 5 5 5 4 4 4 4 4 4 3 3 3 3 3 3 3 3 2 2 2 2 2 2 2 1 1 1 1 1 1 1 1 1 1 0 0 0 -0 -0 -1 -1 -1 -1 -1 -1 -1 -1
7 7 7 7 7 6 6 6 6 6 6 6 6 6 6 5 5 5 5 5 5 5 5 4 4 4 4 4 4 3 3 3 3 3 3 3 3 2 2 2 2 2 2 2 1 1 1 1 1 1 1 1 1 1 1 0 0 -0 -0 -1 -1 -1 -1 -1 -1 -1 -1 -1 -1
7 7 7 7 7 7 6 6 6 6 6 6 6 6 5 5 5 5 5 5 5 5 4 4 4 4 4 3 3 3 3 3 3 3 3 2 2 2 2 2 2 1 1 1 1 1 1 1 1 1 1 0 0 0 0 -0 -0 -1 -1 -1 -1 -1 -1 -1 -1 -1 -1 -1 -1
7 7 7 7 7 7 6 6 6 6 6 6 6 5 5 5 5 5 5 5 4 4 4 4 4 4 3 3 3 3 3 3 3 2 2 2 2 2 1 1 1 1 1 1 1 1 1 1 1 0 0 0 0 -0 -0 -1 -1 -1 -1 -1 -1 -1 -1 -1 -1 -1 -1 -1 -1
8 7 7 7 7 6 6 6 6 6 6 5 5 5 5 5 5 5 5 4 4 4 4 4 3 3 3 3 3 3 3 2 2 2 2 2 1 1 1 1 1 1 1 1 1 1 1 0 0 0 0 -0 -0 -0 -1 -1 -1 -1 -1 -1 -1 -1 -1 -1 -1 -1 -1 -1 -1
8 7 7 7 6 6 6 6 6 5 5 5 5 5 5 5 5 4 4 4 4 4 3 3 3 3 3 3 3 2 2 2 2 2 1 1 1 1 1 1 1 1 1 0 0 0 0 0 0 0 -0 -0 -0 -1 -1 -1 -1 -2 -2 -2 -2 -1 -2 -2 -1 -1 -2 -1 -1
7 7 7 6 6 6 6 5 5 5 5 5 5 5 5 5 4 4 4 4 3 3 3 3 3 3 3 2 2 2 2 2 2 1 1 1 1 1 0 0 0 0 0 0 0 0 0 0 -0 -0 -0 -0 -1 -1 -1 -2 -2 -2 -2 -2 -2 -2 -1 -1 -1 -1 -1 -2 -2
7 7 6 6 6 6 5 5 5 5 5 5 5 5 5 4 4 4 4 3 3 3 3 2 2 2 2 2 2 2 2 1 1 1 1 1 1 0 0 0 0 0 0 0 -0 -0 -0 -0 -0 -0 -1 -1 -1 -1 -2 -2 -2 -2 -2 -2 -2 -2 -1 -1 -1 -1 -1 -2 -2
7 6 6 6 6 5 5 5 5 5 5 5 5 5 4 4 4 4 3 3 3 2 2 2 2 2 2 2 2 2 1 1 1 1 1 1 0 0 0 0 0 -0 -0 -0 -0 -0 -0 -0 -0 -1 -1 -1 -2 -2 -2 -2 -2 -2 -2 -2 -2 -1 -1 -1 -1 -1 -2 -2 -2
6 6 6 6 5 5 5 5 5 5 5 4 4 4 4 4 3 3 3 3 2 2 2 2 2 2 2 2 1 1 1 1 1 1 1 0 0 0 -0 -0 -0 -0 -0 -0 -0 -0 -0 -0 -1 -1 -2 -2 -2 -2 -2 -2 -2 -2 -2 -2 -1 -1 -1 -1 -1 -1 -2 -2 -2
6 6 6 5 5 5 5 5 4 4 4 4 4 4 4 3 3 3 2 2 2 2 2 2 2 2 1 1 1 1 1 1 1 1 0 0 0 -0 -0 -0 -0 -0 -0 -0 -0 -0 -1 -1 -1 -2 -2 -2 -2 -2 -2 -2 -2 -2 -2 -1 -1 -1 -1 -1 -1 -1 -1 -1 -2
6 6 5 5 5 5 5 4 4 4 4 4 4 4 3 3 3 2 2 2 2 2 2 2 2 1 1 1 1 1 1 1 1 0 0 0 0 -0 -0 -0 -0 -1 -1 -1 -0 -1 -1 -2 -2 -2 -2 -2 -2 -2 -2 -2 -2 -2 -1 -1 -1 -1 -1 -1 -1 -1 -2 -2 -2
6 5 5 5 5 5 4 4 4 4 4 4 4 3 3 3 2 2 2 2 2 2 2 2 2 1 1 1 1 1 1 0 0 0 0 -0 -0 -0 -0 -0 -1 -1 -1 -1 -0 -1 -1 -2 -2 -2 -2 -2 -1 -1 -1 -1 -1 -1 -1 -1 -1 -1 -1 -1 -2 -2 -2 -2 -2
5 5 5 5 5 4 4 4 4 4 4 4 3 3 3 2 2 2 2 2 2 2 2 2 1 1 1 1 1 1 0 0 0 -0 -0 -0 -0 -1 -1 -1 -1 -1 -1 -1 -1 -1 -2 -2 -2 -2 -1 -1 -1 -1 -1 -1 -1 -1 -1 -1 -1 -2 -2 -2 -2 -2 -2 -2 -2
5 5 5 5 4 4 4 4 4 4 4 3 3 3 2 2 2 2 2 2 2 2 2 2 1 1 1 1 1 0 0 0 -0 -0 -0 -1 -1 -1 -1 -1 -1 -1 -1 -1 -1 -1 -2 -2 -2 -2 -1 -1 -1 -1 -1 -1 -2 -2 -2 -2 -2 -2 -2 -2 -2 -2 -2 -2 -2
5 5 5 4 4 4 4 4 4 3 3 3 3 2 2 2 2 2 2 2 2 2 2 1 1 1 1 1 0 0 0 -0 -0 -0 -1 -1 -1 -1 -1 -1 -1 -1 -1 -1 -1 -1 -2 -2 -2 -2 -2 -1 -2 -2 -2 -2 -2 -2 -2 -2 -2 -2 -2 -2 -2 -2 -2 -2 -2
5 5 5 4 4 4 4 4 3 3 3 3 3 2 2 2 2 2 2 2 2 2 2 1 1 1 1 0 0 0 -0 -0 -1 -1 -1 -1 -1 -1 -1 -1 -1 -1 -1 -1 -1 -1 -2 -2 -2 -2 -2 -2 -2 -2 -2 -2 -2 -2 -2 -2 -2 -2 -2 -2 -2 -2 -2 -2 -2
5 5 4 4 4 4 4 3 3 3 3 3 2 2 2 2 2 2 2 2 2 2 1 1 1 1 0 0 0 -0 -0 -0 -1 -1 -1 -1 -1 -1 -1 -1 -1 -1 -1 -1 -1 -2 -2 -2 -2 -2 -2 -2 -2 -2 -2 -2 -2 -2 -2 -2 -2 -2 -2 -2 -2 -2 -2 -2 -2
5 5 4 4 4 4 3 3 3 3 3 2 2 2 2 2 2 2 2 2 2 1 1 1 1 1 0 0 -0 -0 -0 -1 -1 -1 -1 -1 -1 -1 -1 -1 -1 -1 -1 -1 -1 -2 -2 -2 -2 -2 -2 -2 -2 -2 -2 -2 -2 -2 -2 -2 -2 -2 -2 -2 -2 -2 -2 -2 -2
5 4 4 4 4 3 3 3 3 3 2 2 2 2 2 2 2 2 2 1 1 1 1 1 0 0 0 -0 -0 -1 -1 -1 -1 -1 -1 -1 -2 -2 -2 -2 -1 -1 -1 -1 -2 -2 -2 -2 -2 -2 -2 -2 -2 -2 -2 -2 -2 -2 -2 -2 -2 -2 -2 -2 -2 -2 -2 -2 -2
4 4 4 4 3 3 3 3 3 2 2 2 2 2 2 2 2 2 1 1 1 1 1 0 0 0 -0 -0 -1 -1 -1 -1 -1 -1 -2 -2 -2 -2 -2 -2 -2 -1 -1 -1 -2 -2 -2 -2 -2 -2 -2 -2 -2 -2 -2 -3 -2 -2 -2 -2 -2 -2 -2 -2 -2 -2 -2 -2 -2
4 4 3 3 3 3 3 3 2 2 2 2 2 2 2 2 2 1 1 1 1 1 1 0 0 -0 -0 -1 -1 -1 -1 -1 -1 -2 -2 -2 -2 -2 -2 -2 -2 -1 -2 -2 -2 -2 -3 -2 -3 -3 -3 -2 -2 -2 -2 -3 -3 -2 -2 -2 -2 -2 -2 -2 -2 -2 -2 -2 -2
4 4 3 3 3 3 3 3 3 3 2 2 2 2 2 2 1 1 1 1 1 1 0 0 -0 -0 -1 -1 -1 -1 -2 -2 -2 -2 -2 -2 -2 -2 -2 -2 -2 -2 -2 -2 -2 -3 -3 -3 -3 -3 -3 -3 -3 -2 -2 -3 -3 -3 -3 -3 -2 -2 -2 -2 -2 -2 -2 -2 -2
4 3 3 3 3 3 3 3 3 3 3 2 2 2 2 2 1 1 1 1 0 0 0 0 -0 -1 -1 -1 -1 -2 -2 -2 -2 -2 -2 -2 -2 -2 -2 -2 -2 -2 -2 -2 -2 -3 -3 -3 -3 -3 -3 -3 -3 -3 -3 -3 -3 -3 -3 -3 -3 -3 -2 -3 -2 -2 -2 -2 -2
4 3 3 3 3 3 3 3 3 3 3 2 2 2 2 1 1 1 1 0 0 0 -0 -0 -0 -1 -1 -1 -1 -2 -2 -2 -2 -2 -2 -2 -2 -2 -2 -2 -2 -2 -2 -2 -2 -2 -3 -3 -3 -3 -3 -3 -3 -3 -3 -3 -3 -3 -3 -3 -3 -3 -3 -3 -3 -3 -2 -2 -2
3 3 3 3 3 3 3 3 3 3 3 2 2 2 1 1 1 1 0 0 0 -0 -0 -0 -1 -1 -1 -1 -2 -2 -2 -2 -2 -2 -2 -2 -2 -2 -2 -2 -2 -2 -2 -2 -2 -2 -2 -3 -3 -3 -3 -3 -3 -3 -3 -3 -3 -3 -3 -3 -3 -3 -3 -3 -3 -2 -2 -2 -2
3 3 3 3 3 3 3 3 3 3 3 2 2 1 1 1 1 0 0 0 -0 -0 -1 -1 -1 -1 -1 -1 -2 -2 -2 -2 -2 -2 -2 -2 -2 -2 -2 -2 -2 -2 -2 -2 -2 -2 -2 -3 -3 -3 -3 -3 -3 -3 -2 -3 -3 -3 -3 -3 -3 -3 -3 -2 -2 -2 -2 -2 -2
3 3 3 3 3 3 3 3 3 3 2 2 2 1 1 1 1 0 0 0 -0 -0 -1 -1 -1 -1 -1 -1 -2 -2 -2 -2 -2 -2 -2 -2 -2 -2 -2 -2 -2 -2 -2 -2 -2 -2 -2 -2 -3 -3 -3 -3 -3 -2 -2 -3 -3 -3 -3 -3 -3 -3 -3 -2 -2 -2 -2 -2 -2
Height
1540 1541 1541 1542 1542 1543 1543 1544 1544 1545 1545 1545 1545 1545 1546 1546 1546 1546 1546 1546 1546 1545 1545 1545 1544 1544 1543 1543 1542 1541 1541 1540 1540 1539 1538 1538 1537 1536 1536 1535 1535 1534 1533 1533 1532 1531 1531 1531 1530 1530 1529 1529 1528 1527 1527 1526 1526 1525 1524 1524 1523 1522 1521 1521 1520 1520 1519 1518 1518
1539 1540 1541 1541 1542 1542 1543 1543 1544 1544 1544 1544 1544 1545 1545 1545 1545 1545 1545 1545 1545 1544 1544 1544 1543 1543 1542 1542 1541 1541 1540 1539 1539 1538 1537 1537 1536 1536 1535 1534 1533 1533 1532 1532 1531 1531 1530 1529 1529 1528 1528 1527 1527 1526 1526 1525 1524 1523 1522 1522 1521 1521 1520 1519 1518 1518 1517 1516 1516
1539 1540 1540 1541 1541 1542 1542 1543 1543 1543 1543 1544 1544 1544 1544 1544 1544 1544 1544 1544 1544 1543 1543 1543 1542 1542 1541 1541 1540 1540 1539 1538 1538 1537 1537 1536 1535 1535 1534 1533 1532 1532 1531 1531 1530 1529 1529 1528 1528 1527 1526 1526 1525 1525 1524 1523 1522 1522 1521 1520 1520 1519 1518 1517 1517 1516 1516 1515 1514
1539 1539 1540 1541 1541 1541 1542 1542 1542 1542 1543 1543 1543 1543 1544 1544 1544 1544 1543 1543 1543 1542 1542 1542 1541 1541 1541 1540 1539 1539 1538 1538 1537 1536 1536 1535 1534 1534 1533 1532 1531 1531 1530 1530 1529 1528 1528 1527 1526 1526 1525 1525 1524 1523 1522 1521 1521 1520 1519 1519 1518 1517 1516 1516 1515 1514 1514 1513 1512
1538 1539 1540 1540 1541 1541 1541 1541 1542 1542 1542 1543 1543 1543 1543 1543 1543 1543 1542 1542 1542 1541 1541 1541 1541 1540 1540 1539 1538 1538 1537 1536 1536 1536 1535 1534 1533 1533 1532 1531 1531 1530 1529 1528 1528 1527 1526 1526 1525 1525 1524 1523 1522 1521 1521 1520 1519 1518 1518 1517 1516 1516 1515 1514 1513 1513 1512 1511 1511
1538 1539 1539 1540 1540 1540 1541 1541 1541 1542 1542 1542 1542 1542 1542 1542 1542 1542 1542 1541 1541 1541 1541 1540 1540 1539 1539 1538 1537 1537 1536 1536 1535 1534 1534 1533 1532 1532 1531 1530 1530 1529 1528 1527 1527 1526 1525 1525 1524 1523 1523 1522 1521 1520 1519 1518 1517 1517 1516 1515 1515 1514 1513 1512 1512 1511 1510 1509 1509
1538 1538 1539 1539 1540 1540 1540 1541 1541 1541 1541 1541 1541 1542 1542 1541 1541 1541 1541 1541 1540 1540 1540 1539 1539 1538 1538 1537 1536 1536 1535 1535 1534 1533 1533 1532 1531 1531 1530 1529 1528 1528 1527 1526 1526 1525 1524 1523 1523 1522 1521 1520 1520 1519 1518 1517 1516 1515 1514 1514 1513 1512 1512 1511 1510 1509 1509 1508 1507
1537 1538 1538 1539 1539 1539 1540 1540 1540 1541 1541 1541 1541 1541 1541 1541 1541 1540 1540 1540 1540 1539 1539 1538 1538 1537 1537 1536 1536 1535 1534 1534 1533 1532 1532 1531 1531 1530 1529 1528 1527 1526 1526 1525 1524 1523 1523 1522 1521 1521 1520 1519 1518 1517 1516 1515 1514 1513 1513 1512 1511 1511 1510 1510 1509 1508 1507 1506 1505
1537 1537 1538 1538 1538 1539 1539 1539 1540 1540 1540 1541 1541 1541 1540 1540 1540 1540 1539 1539 1539 1538 1538 1537 1537 1536 1536 1535 1535 1534 1533 1533 1532 1531 1531 1530 1529 1528 1528 1527 1526 1525 1524 1524 1523 1522 1521 1521 1520 1519 1518 1517 1516 1516 1515 1514 1513 1512 1511 1511 1510 1509 1509 1508 1507 1506 1505 1505 1504
1537 1537 1537 1538 1538 1538 1539 1539 1539 1540 1540 1540 1540 1540 1540 1540 1539 1539 1539 1538 1538 1537 1537 1536 1536 1535 1535 1534 1534 1533 1532 1532 1531 1531 1530 1529 1528 1527 1526 1526 1525 1524 1523 1522 1521 1521 1520 1519 1518 1518 1517 1516 1515 1514 1513 1512 1511 1511 1510 1509 1508 1507 1507 1506 1506 1505 1504 1503 1502
1536 1537 1537 1538 1538 1538 1539 1539 1539 1539 1539 1539 1539 1539 1539 1539 1539 1538 1538 1537 1537 1536 1536 1535 1535 1534 1534 1533 1533 1532 1531 1531 1530 1529 1528 1528 1527 1526 1525 1524 1523 1523 1522 1521 1520 1519 1519 1518 1517 1516 1516 1515 1514 1513 1511 1511 1510 1509 1508 1507 1507 1506 1506 1505 1504 1504 1503 1502 1501
1536 1537 1537 1538 1538 1538 1538 1538 1538 1538 1539 1539 1538 1538 1538 1538 1538 1537 1537 1536 1536 1536 1535 1534 1534 1533 1533 1532 1532 1531 1531 1530 1529 1528 1527 1526 1526 1525 1524 1523 1522 1521 1521 1520 1519 1518 1517 1516 1516 1515 1514 1513 1512 1511 1510 1509 1508 1508 1507 1506 1506 1505 1504 1503 1503 1502 1501 1501 1500
1536 1537 1537 1537 1537 1538 1538 1538 1538 1538 1538 1538 1538 1538 1537 1537 1537 1536 1536 1536 1535 1535 1534 1533 1533 1532 1532 1531 1531 1530 1529 1529 1528 1527 1526 1525 1524 1524 1523 1522 1521 1520 1519 1519 1518 1517 1516 1515 1514 1513 1512 1511 1511 1510 1509 1508 1507 1506 1506 1505 1504 1504 1503 1502 1502 1501 1500 1500 1499
1536 1536 1537 1537 1537 1537 1537 1537 1537 1537 1537 1537 1537 1537 1537 1536 1536 1536 1535 1535 1534 1534 1533 1533 1532 1532 1531 1531 1530 1529 1528 1527 1526 1526 1525 1524 1523 1522 1521 1521 1520 1519 1518 1517 1516 1516 1515 1514 1513 1512 1511 1510 1509 1508 1508 1507 1506 1505 1504 1504 1503 1502 1502 1501 1501 1500 1499 1498 1498
1536 1536 1536 1537 1537 1537 1537 1537 1537 1537 1536 1536 1536 1536 1536 1536 1535 1535 1534 1534 1533 1533 1532 1532 1531 1531 1530 1529 1529 1528 1527 1526 1526 1525 1524 1523 1522 1521 1521 1520 1519 1518 1517 1516 1516 1515 1514 1513 1512 1511 1510 1509 1508 1507 1506 1506 1505 1504 1503 1503 1502 1501 1501 1500 1499 1499 1498 1497 1496
1536 1536 1536 1536 1536 1536 1536 1536 1536 1536 1536 1536 1536 1536 1535 1535 1534 1534 1533 1533 1532 1532 1531 1531 1531 1530 1529 1528 1527 1527 1526 1525 1524 1524 1523 1522 1521 1520 1519 1518 1517 1516 1516 1515 1514 1513 1512 1512 1511 1510 1509 1507 1506 1506 1505 1504 1504 1503 1502 1501 1501 1500 1500 1499 1498 1497 1497 1496 1496
1536 1536 1536 1536 1536 1536 1536 1536 1536 1536 1535 1535 1535 1535 1534 1534 1534 1533 1533 1532 1532 1531 1531 1530 1529 1529 1528 1527 1526 1526 1525 1524 1523 1522 1521 1521 1520 1519 1518 1517 1516 1516 1515 1514 1513 1512 1511 1510 1509 1508 1507 1506 1505 1505 1504 1503 1502 1502 1501 1501 1500 1499 1498 1498 1497 1496 1496 1495 1495
1535 1535 1535 1535 1535 1535 1535 1535 1535 1535 1535 1534 1534 1534 1533 1533 1533 1532 1532 1531 1531 1530 1530 1529 1528 1528 1527 1526 1526 1525 1524 1523 1522 1521 1521 1520 1519 1518 1517 1516 1515 1514 1513 1512 1511 1511 1510 1509 1508 1507 1506 1505 1504 1503 1503 1502 1501 1501 1500 1499 1499 1498 1497 1496 1496 1495 1495 1494 1493
1534 1534 1534 1534 1535 1535 1534 1534 1534 1534 1534 1533 1533 1533 1533 1532 1532 1531 1531 1530 1530 1529 1529 1528 1527 1527 1526 1526 1525 1524 1523 1522 1521 1520 1519 1518 1517 1516 1516 1515 1514 1513 1512 1511 1510 1509 1508 1507 1506 1506 1505 1504 1503 1502 1501 1501 1500 1500 1499 1498 1497 1497 1496 1495 1494 1494 1493 1493 1492
1534 1534 1534 1534 1534 1534 1534 1534 1533 1533 1533 1533 1532 1532 1532 1531 1531 1531 1530 1529 1529 1528 1528 1527 1526 1526 1525 1524 1524 1523 1522 1521 1520 1519 1518 1517 1516 1515 1514 1514 1513 1512 1511 1510 1509 1508 1507 1506 1505 1504 1503 1502 1501 1501 1500 1500 1499 1498 1498 1497 1496 1495 1494 1494 1493 1492 1492 1491 1491
1533 1533 1533 1533 1533 1533 1533 1533 1533 1532 1532 1532 1531 1531 1531 1531 1530 1530 1529 1529 1528 1527 1527 1526 1526 1525 1524 1523 1523 1522 1521 1520 1519 1518 1517 1516 1515 1514 1513 1512 1511 1511 1510 1509 1508 1506 1506 1505 1504 1503 1502 1501 1500 1500 1499 1498 1497 1497 1496 1496 1495 1494 1493 1492 1492 1491 1491 1490 1489
1533 1533 1533 1533 1533 1533 1532 1532 1532 1532 1531 1531 1531 1531 1530 1530 1529 1529 1528 1528 1527 1527 1526 1525 1525 1524 1523 1522 1521 1521 1520 1519 1518 1517 1516 1515 1514 1513 1512 1511 1510 1509 1508 1507 1506 1505 1504 1503 1502 1501 1501 1500 1499 1498 1498 1497 1496 1496 1495 1494 1493 1493 1492 1491 1491 1490 1489 1488 1488
1532 1532 1532 1532 1532 1532 1532 1531 1531 1531 1531 1530 1530 1530 1529 1529 1528 1528 1527 1527 1526 1526 1525 1525 1524 1523 1522 1521 1521 1520 1519 1518 1517 1516 1515 1514 1513 1512 1511 1510 1509 1508 1507 1506 1505 1504 1503 1502 1501 1500 1500 1499 1498 1497 1496 1496 1495 1494 1494 1493 1492 1492 1491 1491 1490 1489 1488 1487 1486
1532 1532 1532 1531 1531 1531 1531 1531 1531 1530 1530 1530 1529 1529 1529 1528 1528 1527 1527 1526 1526 1525 1524 1524 1523 1522 1521 1520 1519 1518 1517 1516 1516 1515 1514 1513 1512 1511 1510 1509 1508 1507 1506 1505 1504 1503 1502 1501 1500 1499 1499 1498 1497 1496 1496 1495 1494 1494 1493 1492 1491 1490 1490 1489 1489 1488 1487 1486 1485
1531 1531 1531 1531 1531 1531 1530 1530 1530 1530 1529 1529 1529 1528 1528 1527 1527 1526 1526 1526 1525 1524 1523 1523 1522 1521 1520 1519 1518 1517 1516 1515 1514 1513 1512 1511 1511 1510 1509 1508 1507 1506 1505 1504 1503 1502 1501 1501 1500 1499 1498 1497 1496 1496 1495 1494 1493 1493 1492 1491 1490 1489 1488 1487 1487 1486 1486 1485 1484
1531 1530 1530 1530 1530 1530 1530 1529 1529 1529 1529 1528 1528 1527 1527 1527 1526 1526 1525 1525 1524 1523 1522 1522 1521 1520 1519 1518 1517 1516 1515 1514 1513 1512 1511 1510 1509 1508 1507 1506 1506 1505 1503 1502 1501 1501 1500 1500 1499 1499 1498 1497 1496 1495 1494 1493 1492 1491 1491 1490 1489 1488 1487 1486 1485 1485 1484 1483 1482
1530 1530 1530 1529 1529 1529 1529 1529 1528 1528 1528 1527 1527 1527 1526 1526 1526 1525 1524 1524 1523 1522 1521 1521 1520 1519 1518 1517 1516 1515 1514 1513 1512 1511 1510 1509 1508 1507 1506 1505 1504 1503 1502 1501 1500 1500 1499 1499 1498 1498 1497 1496 1495 1494 1493 1491 1491 1490 1489 1488 1487 1486 1486 1485 1484 1483 1482 1481 1481
1529 1529 1529 1529 1529 1528 1528 1528 1528 1527 1527 1527 1526 1526 1526 1525 1525 1524 1523 1523 1522 1521 1520 1519 1518 1518 1517 1516 1515 1514 1513 1512 1511 1510 1509 1508 1507 1506 1505 1504 1503 1502 1501 1500 1499 1499 1498 1498 1497 1497 1496 1495 1494 1492 1491 1490 1489 1488 1487 1486 1486 1485 1484 1483 1482 1481 1481 1480 1479
1528 1528 1528 1528 1528 1528 1528 1527 1527 1527 1526 1526 1526 1525 1525 1524 1524 1523 1522 1521 1521 1520 1519 1518 1517 1516 1516 1515 1514 1513 1512 1511 1510 1509 1508 1507 1506 1505 1504 1503 1502 1501 1500 1499 1498 1497 1497 1497 1496 1496 1495 1494 1493 1491 1490 1489 1488 1487 1486 1485 1484 1483 1482 1481 1481 1480 1479 1478 1477
1528 1528 1528 1527 1527 1527 1527 1527 1526 1526 1526 1526 1525 1525 1524 1523 1523 1522 1521 1520 1520 1519 1518 1517 1516 1515 1514 1513 1512 1511 1511 1510 1509 1508 1507 1506 1505 1504 1503 1502 1501 1500 1499 1498 1497 1496 1496 1496 1495 1495 1494 1493 1492 1490 1489 1488 1486 1486 1484 1483 1482 1482 1481 1480 1479 1479 1478 1477 1476
1527 1527 1527 1527 1527 1526 1526 1526 1526 1525 1525 1525 1524 1524 1523 1523 1522 1521 1520 1519 1518 1517 1516 1516 1515 1514 1513 1512 1511 1510 1509 1508 1507 1506 1506 1505 1503 1502 1501 1501 1500 1499 1498 1497 1496 1496 1495 1495 1494 1493 1492 1491 1490 1489 1487 1486 1485 1484 1483 1482 1481 1481 1480 1479 1478 1477 1476 1476 1475
1526 1526 1526 1526 1526 1526 1526 1525 1525 1525 1524 1524 1523 1523 1522 1522 1521 1520 1519 1518 1517 1516 1515 1514 1513 1512 1512 1511 1510 1509 1508 1507 1506 1505 1504 1503 1502 1501 1500 1499 1498 1497 1496 1496 1495 1495 1494 1494 1493 1492 1491 1490 1489 1487 1486 1485 1484 1483 1482 1481 1480 1479 1478 1477 1476 1476 1475 1475 1474
1526 1526 1526 1526 1525 1525 1525 1524 1524 1524 1523 1523 1523 1522 1521 1521 1520 1519 1518 1517 1516 1515 1514 1513 1512 1511 1510 1510 1509 1508 1507 1506 1505 1504 1503 1502 1501 1500 1499 1498 1497 1496 1496 1495 1494 1493 1493 1492 1491 1490 1489 1489 1487 1486 1484 1483 1482 1481 1480 1479 1478 1477 1477 1476 1475 1475 1474 1473 1473
1525 1525 1525 1525 1525 1524 1524 1524 1523 1523 1523 1522 1522 1521 1521 1520 1519 1518 1517 1516 1515 1514 1513 1512 1511 1510 1509 1508 1507 1506 1506 1505 1504 1503 1502 1501 1500 1499 1498 1497 1496 1495 1494 1493 1493 1492 1491 1491 1490 1489 1488 1487 1486 1484 1483 1482 1481 1480 1478 1477 1476 1476 1476 1475 1474 1473 1473 1472 1471
1525 1524 1524 1524 1524 1524 1523 1523 1522 1522 1522 1521 1521 1520 1519 1518 1517 1516 1516 1515 1514 1513 1512 1511 1510 1509 1508 1507 1506 1505 1504 1503 1502 1501 1501 1500 1499 1497 1496 1496 1495 1494 1493 1492 1491 1491 1490 1489 1488 1487 1486 1486 1484 1483 1481 1480 1479 1478 1477 1476 1475 1474 1474 1473 1472 1472 1471 1471 1470
1524 1524 1524 1523 1523 1523 1522 1522 1522 1521 1521 1521 1520 1519 1518 1517 1516 1515 1514 1513 1512 1511 1511 1510 1509 1508 1507 1506 1505 1504 1503 1502 1501 1500 1499 1498 1497 1496 1495 1494 1493 1492 1492 1491 1490 1489 1489 1488 1487 1486 1485 1484 1482 1481 1480 1479 1477 1476 1476 1475 1474 1473 1472 1471 1471 1470 1470 1469 1469
1523 1523 1523 1523 1522 1522 1521 1521 1521 1520 1520 1519 1519 1518 1517 1516 1515 1514 1513 1512 1511 1510 1509 1509 1508 1507 1506 1505 1504 1503 1502 1501 1500 1499 1498 1497 1496 1495 1494 1493 1492 1491 1490 1489 1489 1488 1487 1486 1485 1485 1484 1483 1481 1480 1478 1477 1476 1475 1474 1473 1472 1471 1471 1470 1469 1469 1468 1468 1468
1522 1522 1522 1522 1521 1521 1521 1520 1520 1520 1519 1518 1517 1517 1516 1515 1514 1513 1512 1511 1510 1509 1508 1507 1506 1506 1505 1504 1503 1502 1501 1500 1499 1498 1497 1496 1495 1494 1493 1492 1491 1490 1489 1488 1487 1486 1485 1484 1484 1483 1482 1481 1480 1478 1477 1476 1475 1474 1473 1472 1471 1470 1469 1469 1468 1467 1467 1467 1466
1522 1521 1521 1521 1521 1520 1520 1519 1519 1519 1518 1517 1516 1516 1515 1514 1513 1512 1511 1510 1509 1508 1507 1506 1505 1504 1503 1502 1501 1501 1500 1499 1498 1497 1496 1495 1494 1493 1492 1491 1490 1488 1487 1486 1486 1485 1483 1482 1482 1481 1481 1480 1478 1477 1476 1475 1474 1473 1471 1471 1470 1469 1468 1467 1467 1466 1466 1466 1465
1521 1521 1521 1520 1520 1519 1519 1518 1518 1517 1517 1516 1515 1514 1513 1513 1512 1511 1510 1509 1508 1507 1506 1505 1504 1503 1502 1501 1501 1499 1499 1498 1497 1496 1495 1494 1493 1492 1491 1490 1488 1487 1486 1485 1484 1483 1482 1481 1480 1480 1479 1478 1477 1476 1475 1474 1473 1471 1470 1469 1468 1467 1466 1466 1466 1465 1465 1464 1464
1520 1520 1520 1519 1519 1518 1518 1517 1517 1516 1516 1515 1514 1513 1512 1511 1511 1510 1509 1508 1507 1506 1505 1504 1503 1502 1501 1500 1499 1498 1497 1496 1496 1495 1494 1493 1492 1491 1490 1488 1487 1486 1485 1483 1482 1481 1480 1479 1478 1478 1478 1477 1476 1476 1474 1473 1471 1470 1469 1468 1467 1466 1466 1465 1464 1464 1463 1463 1462
Wind_Speed
13 12 12 11 11 11 10 10 10 10 9 9 9 9 8 8 8 8 8 8 8 8 8 8 7 7 7 8 8 9 9 10 11 11 12 13 13 13 14 14 14 14 14 14 14 14 14 14 15 15 15 15 15 15 16 16 16 17 17 17 17 18 18 18 19 19 19 19 19
12 11 11 10 10 9 9 9 9 9 9 9 8 8 8 7 7 7 7 7 7 7 7 7 7 7 7 8 9 9 10 11 11 12 13 13 13 14 14 14 14 14 14 14 14 14 15 15 15 15 15 16 16 16 16 16 17 17 18 18 18 19 19 19 20 20 20 20 20
11 10 9 9 8 8 8 8 8 8 8 8 7 7 6 6 6 6 6 6 6 6 6 6 7 7 8 9 9 10 11 11 12 12 13 13 14 14 14 14 14 14 14 15 15 15 15 16 16 16 16 16 17 17 17 17 18 18 19 19 20 20 20 20 21 21 21 21 21
10 9 8 7 7 7 7 7 7 7 7 7 6 6 5 5 5 5 5 5 5 5 5 6 7 8 8 9 10 10 11 12 12 13 13 14 14 14 14 15 15 15 15 15 15 16 16 16 16 16 17 17 17 18 18 19 19 19 20 20 20 21 21 21 21 22 22 22 22
8 7 7 6 6 6 6 6 6 6 6 5 5 5 4 4 4 4 4 4 5 5 6 6 7 8 9 9 10 11 12 12 13 13 14 14 14 15 15 15 15 16 16 16 16 16 16 16 17 17 17 18 18 18 19 19 20 20 20 21 21 21 22 22 22 22 22 23 23
7 6 6 6 6 6 6 6 6 5 5 4 4 4 4 4 4 4 4 4 5 5 6 7 7 8 9 10 10 11 12 13 13 14 14 15 15 15 15 16 16 16 16 16 16 17 17 17 17 17 18 18 19 19 19 20 20 21 21 21 21 21 22 22 22 22 23 23 23
6 6 6 6 6 5 5 5 4 4 4 4 4 4 3 4 3 4 4 4 5 6 6 7 8 9 9 10 11 12 12 13 14 14 15 15 15 16 16 16 16 16 16 17 17 17 17 18 18 18 18 19 19 19 20 20 21 21 21 21 21 21 22 22 22 23 23 23 23
5 5 5 5 5 4 4 3 3 3 3 3 3 3 3 3 3 4 4 5 5 6 7 8 9 9 10 11 12 13 13 14 14 15 15 15 16 16 16 16 16 17 17 17 17 18 18 18 18 19 19 19 19 20 20 21 21 21 22 22 22 22 21 22 22 22 23 23 23
4 4 4 3 3 3 3 3 3 3 3 3 3 3 3 3 3 4 5 5 6 7 8 8 9 10 11 12 12 13 14 14 15 15 15 16 16 16 16 17 17 17 17 17 18 18 18 19 19 19 19 19 20 20 20 21 21 21 21 22 22 22 22 22 22 22 22 22 22
4 3 3 3 3 3 3 3 3 3 3 3 3 3 3 3 4 4 5 6 7 8 8 9 10 11 12 12 13 14 14 15 15 15 16 16 16 16 17 17 17 17 18 18 18 18 19 19 19 19 19 19 20 20 20 21 21 21 21 22 22 22 22 21 21 21 21 21 21
4 4 4 4 3 3 3 3 3 3 3 2 2 2 3 3 4 5 6 7 8 8 9 10 11 11 12 13 13 14 14 15 15 15 16 16 16 16 17 17 17 18 18 18 18 19 19 19 19 19 19 19 20 20 20 21 21 21 21 21 21 21 21 20 19 19 19 19 19
4 4 4 4 4 4 3 3 3 2 2 2 2 3 3 4 5 6 6 7 8 9 10 10 11 12 12 13 14 14 15 15 15 16 16 16 16 17 17 17 18 18 18 18 19 19 19 19 19 19 19 19 20 20 20 21 21 21 21 21 21 21 20 19 18 17 18 18 18
5 5 5 4 4 3 3 3 2 2 2 2 2 3 4 5 5 6 7 8 8 9 10 11 12 12 13 13 14 14 15 15 15 16 16 16 16 17 17 17 18 18 18 18 18 19 19 19 19 19 19 20 20 20 20 21 21 21 21 20 20 19 18 17 17 17 17 17 18
5 5 4 4 3 3 3 2 2 1 2 2 3 4 5 5 6 7 7 8 9 10 11 11 12 12 13 14 14 15 15 15 16 16 16 16 17 17 17 17 18 18 18 18 18 18 18 19 19 19 19 20 20 20 20 20 20 20 20 19 18 17 17 16 16 17 17 17 18
4 4 4 3 3 3 2 2 1 1 2 3 4 4 5 6 7 7 8 9 9 10 11 11 12 13 13 14 14 15 15 16 16 16 16 17 17 17 17 18 18 18 18 18 18 18 18 18 19 19 19 20 20 20 20 20 19 19 18 17 17 16 16 16 17 17 18 18 18
4 3 3 3 3 2 2 1 1 2 2 3 4 5 6 6 7 8 9 9 10 11 11 12 12 13 13 14 15 15 15 16 16 16 17 17 17 17 18 18 18 18 19 19 18 18 18 18 18 19 19 20 20 20 19 19 18 17 17 16 16 16 16 17 18 18 19 19 19
3 3 2 2 2 1 1 1 1 2 3 4 5 6 6 7 8 8 9 10 10 11 11 12 13 13 14 14 15 15 16 16 16 17 17 17 17 18 18 18 18 19 19 19 18 18 18 18 19 19 19 19 19 19 18 18 17 17 16 16 16 16 16 17 18 18 19 19 20
2 2 1 1 1 0 1 2 2 3 4 5 6 6 7 8 8 9 9 10 11 11 12 12 13 14 14 15 15 16 16 16 16 17 17 17 18 18 18 18 19 19 19 19 19 19 19 19 19 19 19 19 19 18 17 17 17 17 17 17 17 17 18 18 18 18 18 18 19
1 1 1 1 1 1 2 2 3 4 5 6 7 7 8 8 9 9 10 10 11 12 12 13 14 14 15 15 15 16 16 16 17 17 17 17 18 18 18 18 18 18 18 18 19 19 19 19 20 20 19 19 18 18 17 17 17 17 17 18 18 19 20 21 20 18 17 16 17
1 1 1 1 2 2 3 3 4 5 6 7 7 8 8 9 9 10 10 11 12 12 13 13 14 14 15 15 16 16 16 16 17 17 17 17 18 18 18 18 18 18 18 18 19 19 19 20 20 19 19 19 18 18 18 17 18 18 18 18 19 20 22 22 21 18 16 15 15
2 1 1 1 2 3 3 4 5 6 6 7 8 8 9 9 10 10 11 11 12 13 13 14 14 15 15 16 16 16 16 17 17 17 17 17 17 17 18 18 18 18 18 19 19 19 20 20 19 19 19 18 18 18 18 18 18 19 19 19 19 21 22 22 19 16 14 14 15
2 2 2 2 2 3 4 5 6 6 7 8 9 9 10 10 10 11 11 12 13 13 14 14 15 15 16 16 16 16 17 17 17 17 17 17 17 17 17 17 18 18 18 19 19 19 20 19 19 18 18 18 19 19 19 19 19 19 20 20 20 21 22 20 17 16 16 18 20
2 2 2 2 3 4 4 5 6 7 8 8 9 9 10 10 11 11 12 12 13 13 14 14 15 15 16 16 16 16 17 17 17 17 17 17 17 17 17 17 17 18 18 19 19 19 19 19 18 18 18 19 19 19 19 18 19 19 20 21 21 21 21 21 21 21 23 25 27
3 3 3 3 4 4 5 6 7 8 8 9 9 10 10 11 11 12 12 13 13 14 14 15 15 15 16 16 16 16 16 17 17 17 17 16 17 17 17 17 17 18 18 19 19 19 18 18 18 18 18 18 18 18 18 18 18 19 20 22 22 21 21 23 24 26 27 28 29
4 4 4 4 4 5 6 6 7 8 9 9 9 10 10 11 11 12 12 13 14 14 15 15 15 16 16 16 16 16 16 16 16 16 17 17 16 16 17 17 17 17 18 19 19 18 17 16 17 17 17 17 17 17 18 18 18 19 21 22 22 22 23 24 25 26 26 26 26
4 4 4 4 5 5 6 7 7 8 9 9 10 10 10 11 12 12 13 13 14 14 15 15 15 16 16 16 16 16 16 16 16 16 16 17 17 17 17 17 17 18 18 19 18 17 16 16 16 16 16 16 17 17 18 19 19 20 20 22 23 24 25 25 25 24 24 24 23
4 4 4 5 5 6 6 7 8 8 9 9 10 10 11 11 12 13 13 14 15 15 15 16 16 16 16 16 16 16 15 15 15 16 16 16 17 17 17 17 17 18 18 18 18 17 16 15 16 16 16 16 17 18 19 20 20 20 21 22 23 24 24 25 24 24 23 23 21
4 5 5 5 6 6 7 7 8 8 9 9 10 11 11 12 13 13 14 15 15 15 16 16 16 16 16 16 15 15 15 15 15 16 16 16 17 17 17 18 18 18 19 19 18 16 15 15 16 16 16 16 18 19 20 20 21 21 22 22 23 24 24 24 24 23 22 22 20
4 5 5 5 6 6 7 7 8 9 9 10 10 11 12 13 13 14 15 15 16 16 16 16 16 16 16 15 15 15 15 15 15 15 16 16 16 17 17 18 18 19 19 18 17 16 15 15 16 16 16 16 18 19 20 20 21 21 22 22 23 24 24 25 24 22 20 20 19
4 4 5 5 6 6 7 8 8 9 10 10 11 12 12 13 14 14 15 16 16 16 16 17 17 16 16 16 16 15 15 15 15 15 16 16 17 17 18 18 19 19 19 18 17 16 15 15 16 16 16 17 17 18 19 19 20 21 21 22 23 23 23 22 20 18 18 18 18
4 4 5 5 6 7 7 8 9 10 11 11 12 12 13 14 14 15 15 16 16 17 17 17 17 16 16 16 16 15 15 15 15 15 16 16 17 18 18 19 19 19 19 18 17 16 15 15 16 17 17 18 18 18 18 18 19 20 21 21 21 20 18 17 15 15 16 17 17
4 5 5 6 7 7 8 9 10 11 12 12 12 13 13 14 14 15 15 16 17 17 17 17 17 17 16 16 16 15 15 15 16 16 16 17 18 18 19 19 19 19 19 18 17 16 15 15 16 18 18 18 18 18 18 18 19 20 20 20 18 16 15 14 15 16 16 17 16
5 5 6 7 8 9 9 10 11 12 12 13 13 13 14 14 15 15 16 16 17 17 17 17 17 17 16 16 16 16 16 16 16 16 17 18 18 19 19 20 19 19 19 18 17 16 16 16 17 18 19 18 18 18 17 17 19 20 21 20 19 18 17 17 18 18 18 17 16
6 6 7 8 9 10 11 11 12 13 13 13 13 13 14 14 15 15 16 17 17 17 17 17 17 17 16 16 16 16 16 17 17 17 18 18 19 19 20 20 19 19 18 18 18 17 17 17 19 19 19 18 18 17 17 18 20 22 23 23 23 22 22 22 22 21 19 18 16
6 7 8 9 10 11 12 12 13 13 13 13 13 13 14 14 15 16 17 17 18 18 18 17 17 17 16 16 16 16 17 17 18 18 18 19 19 20 20 20 19 19 19 19 19 18 18 19 20 20 19 18 17 17 18 19 21 23 24 25 26 26 26 25 24 22 19 17 16
7 8 9 10 11 12 13 13 13 13 13 13 13 13 14 15 16 16 17 18 18 18 18 18 17 17 17 17 17 17 17 18 18 19 19 19 20 20 20 20 19 19 19 19 20 20 20 20 21 20 19 18 17 18 19 20 22 23 25 26 26 26 25 24 21 19 16 14 14
8 9 10 11 12 13 14 14 14 14 13 13 13 14 15 16 16 17 18 18 18 19 18 18 18 18 17 18 18 18 18 18 19 19 19 19 20 20 20 20 19 20 20 20 21 22 22 22 21 20 18 17 17 18 19 21 22 23 24 25 24 23 21 19 16 14 13 12 13
9 10 11 12 13 14 14 15 14 14 14 14 14 15 16 16 17 18 18 19 19 19 19 19 18 18 18 18 19 19 19 19 19 19 19 19 19 19 19 19 20 20 21 21 22 23 24 23 21 19 17 16 16 17 19 20 22 23 24 24 22 20 17 14 12 11 11 11 13
9 10 12 13 14 15 15 15 14 14 14 14 15 16 16 17 18 18 19 19 19 19 19 19 19 19 19 19 19 19 19 19 19 19 19 19 18 18 19 19 20 20 21 22 23 24 25 24 20 17 16 15 15 17 18 20 21 22 23 23 21 18 15 12 11 10 11 12 13
10 11 13 14 14 15 15 15 15 14 14 15 15 16 17 18 18 19 19 19 19 19 19 19 19 19 19 19 20 20 20 20 19 18 18 18 18 18 18 19 20 21 22 23 24 25 24 22 19 16 14 13 14 16 17 19 21 22 22 22 20 18 15 12 11 11 12 13 15
11 12 13 14 15 15 15 15 15 15 15 15 16 16 17 18 19 19 20 20 20 20 20 20 20 20 19 20 20 20 20 20 19 18 18 17 17 17 18 19 20 22 23 24 24 24 23 21 17 14 12 11 13 15 17 19 20 22 22 21 19 17 16 14 12 12 13 15 16
Wind_Direction
194 197 200 204 209 213 217 221 224 228 232 235 236 237 237 238 239 242 248 255 262 269 275 280 284 289 294 300 306 312 316 318 320 321 321 320 320 319 319 318 317 316 314 313 312 311 309 309 308 308 308 308 308 308 308 307 307 306 306 305 305 305 305 304 304 303 303 301 300
193 196 200 204 209 213 218 222 226 229 232 233 233 233 235 238 243 249 256 263 269 275 280 285 290 297 304 309 313 317 318 320 320 320 320 320 319 319 318 318 317 316 314 313 312 311 310 310 310 310 310 309 310 309 309 309 308 308 307 307 306 306 306 306 306 305 304 303 301
192 196 201 206 211 216 220 221 224 226 226 228 230 232 237 243 250 257 263 269 274 279 285 293 300 307 311 315 317 318 319 319 319 319 319 319 319 319 318 318 317 315 314 313 313 312 311 311 311 311 311 311 311 310 310 310 309 309 308 308 308 308 308 307 306 306 304 303 301
192 196 201 207 212 215 216 217 219 221 223 226 231 237 244 251 257 262 266 272 280 287 296 303 309 312 315 316 318 318 318 319 319 319 319 319 319 319 318 317 316 315 314 313 313 312 313 312 313 312 312 312 312 311 311 311 310 309 309 309 309 309 308 307 307 305 304 303 301
190 194 200 205 208 210 211 213 215 218 222 229 238 246 252 258 261 266 272 281 292 300 305 309 311 314 315 316 317 317 318 319 319 320 320 320 319 319 318 317 315 315 314 313 313 313 313 313 313 313 312 312 312 312 311 310 310 309 309 309 309 309 308 307 306 305 304 302 301
186 192 198 202 204 206 208 210 214 220 229 240 251 259 264 268 273 280 290 298 303 306 308 311 312 313 314 316 316 318 319 320 320 321 321 320 319 318 317 315 315 314 314 313 313 313 313 313 313 313 312 312 312 311 310 310 309 309 309 309 308 308 308 307 306 305 304 303 302
187 196 200 202 202 203 205 211 219 231 244 257 268 275 280 284 292 299 303 304 305 307 309 311 312 313 315 317 318 319 320 321 321 321 320 319 318 316 315 315 315 314 314 313 313 313 313 313 313 312 312 312 311 310 310 309 309 308 308 308 308 308 308 307 307 306 305 304 303
198 205 206 206 204 205 208 218 233 248 260 270 277 284 289 295 300 303 304 305 305 308 311 312 314 316 318 319 321 321 322 321 321 320 319 318 317 316 315 315 315 314 314 314 314 313 313 313 313 312 312 312 311 310 310 309 308 308 308 308 308 308 308 308 308 307 306 305 304
205 209 209 207 206 209 216 230 243 254 263 269 276 283 291 297 300 303 304 307 309 312 314 316 318 319 321 322 322 322 321 321 320 319 318 317 317 317 316 316 315 315 314 314 314 313 313 313 313 312 312 311 311 310 309 308 308 307 307 308 308 309 309 309 309 309 309 308 307
201 202 203 200 202 208 220 229 239 248 255 264 274 283 291 297 302 305 308 311 314 316 318 319 321 322 323 323 322 321 321 320 319 319 319 318 318 318 317 317 316 315 315 314 314 314 313 313 313 312 312 311 310 309 308 308 307 307 307 308 309 310 311 311 312 312 312 312 311
194 194 193 194 199 206 214 223 230 240 251 260 273 285 293 301 307 309 312 314 317 319 320 320 322 322 322 322 322 321 321 320 320 320 320 320 319 318 317 317 316 315 314 314 314 314 314 313 312 312 311 310 310 309 308 308 308 308 309 310 310 311 312 314 315 316 317 317 317
186 187 188 190 195 201 207 214 222 234 246 261 280 293 302 307 309 313 315 318 319 320 320 320 321 321 321 321 321 321 321 322 322 322 321 320 319 318 317 316 315 315 314 314 314 314 314 313 313 312 311 310 310 309 309 309 309 309 310 311 312 313 315 316 319 321 322 323 322
181 182 182 185 187 192 196 201 214 229 251 274 291 301 308 312 314 316 318 320 319 319 320 320 320 321 321 321 322 323 323 323 323 323 322 320 318 317 316 315 315 314 314 314 314 314 314 313 313 312 311 310 310 310 309 310 310 311 312 313 314 315 317 320 323 326 327 328 327
175 175 173 173 175 178 183 191 208 238 269 291 302 309 313 316 318 319 320 320 319 318 319 319 320 321 322 323 324 324 325 324 323 322 320 319 317 316 315 315 314 314 314 314 314 314 314 314 313 312 311 311 311 311 311 311 311 312 313 314 315 316 319 323 327 330 331 331 329
167 165 163 163 163 168 175 188 221 265 290 303 309 314 317 320 321 320 320 318 317 317 318 320 322 323 325 326 326 326 326 324 323 321 319 318 317 316 315 315 314 314 314 314 314 314 314 313 313 313 313 312 312 312 312 312 313 313 314 315 316 318 322 326 330 333 334 332 330
159 158 156 155 157 162 176 205 258 290 303 311 316 319 321 322 321 320 319 317 317 318 319 322 324 326 327 328 327 326 325 323 322 320 319 318 317 316 315 315 314 314 314 314 313 313 313 313 313 314 314 314 313 313 313 313 313 314 315 316 318 321 325 329 333 335 335 333 330
150 147 144 143 144 154 203 268 296 307 315 318 321 323 323 322 321 320 319 318 319 320 323 325 327 328 329 328 327 326 324 323 321 320 319 318 317 316 315 314 314 313 313 313 313 313 313 313 313 314 314 315 314 314 314 314 315 316 317 319 321 323 326 329 332 333 333 331 328
124 115 109 102 82 351 309 308 315 321 324 325 325 324 323 322 321 320 320 320 322 324 327 328 329 329 329 328 326 325 324 322 321 320 319 317 316 314 314 313 313 313 313 312 312 312 313 314 314 315 315 315 315 315 315 316 317 318 320 322 323 324 325 324 323 324 324 324 323
71 64 60 42 3 334 324 323 327 329 329 327 325 323 322 321 321 322 323 325 326 328 329 330 330 329 328 327 326 324 323 322 320 319 317 315 314 313 312 312 312 312 312 312 312 313 313 314 315 316 317 316 317 317 317 318 319 320 321 323 324 325 323 319 314 311 311 313 314
29 31 28 11 347 336 331 330 331 329 327 325 322 321 321 322 323 325 328 329 330 330 331 330 329 328 327 326 325 324 322 321 319 317 315 314 313 312 311 311 311 312 312 312 313 313 314 315 316 317 318 318 319 320 320 320 320 320 321 322 324 325 324 319 313 307 304 304 306
-0 4 4 354 342 336 332 330 328 326 323 321 320 320 321 323 326 329 330 331 331 331 331 330 329 327 326 325 324 322 321 319 317 315 314 312 312 311 311 312 312 312 312 313 313 314 315 316 317 318 320 321 322 322 322 321 320 319 319 321 324 327 326 323 319 314 310 308 310
330 335 341 339 334 332 328 326 323 321 320 319 319 320 323 326 329 331 332 332 331 330 329 328 327 326 325 324 322 321 319 317 315 314 312 312 311 311 311 312 312 313 313 314 314 315 316 317 320 322 323 323 323 323 322 321 319 318 319 320 323 324 324 324 324 322 319 318 318
312 318 324 326 326 325 323 321 319 317 316 317 319 322 325 328 330 331 331 331 330 328 327 326 325 325 323 322 321 319 317 316 314 313 312 311 311 312 312 312 313 314 315 316 316 317 319 322 324 325 325 324 323 322 321 320 319 318 318 317 317 316 316 316 315 314 314 315 315
313 318 320 322 322 320 318 316 315 315 315 317 320 323 327 330 331 331 330 328 327 325 325 324 323 322 321 320 319 317 316 314 313 313 312 312 312 312 313 314 314 316 317 317 318 321 324 327 327 326 325 323 322 321 320 318 317 317 316 315 312 311 310 308 307 307 308 309 311
317 319 320 319 318 316 314 312 312 312 315 318 321 325 328 330 330 328 327 325 324 323 322 322 321 320 319 318 317 316 315 314 313 313 313 313 314 314 314 316 317 318 318 319 320 324 328 329 326 324 323 322 320 318 317 315 315 315 315 314 313 312 310 308 306 307 308 309 311
314 316 315 314 313 311 311 309 309 311 315 319 323 327 329 328 327 325 324 322 321 321 320 319 319 318 317 316 315 315 314 315 315 315 315 315 315 316 317 318 319 320 320 321 323 326 328 328 326 324 323 321 318 316 314 313 314 314 313 312 311 310 309 308 308 310 313 316 317
302 304 306 307 307 306 306 307 309 312 316 321 325 327 327 326 324 323 321 319 319 318 318 317 317 317 316 315 314 314 314 315 316 316 316 317 317 319 320 321 322 323 323 323 326 328 329 328 327 325 324 321 318 316 315 314 313 312 309 306 304 304 304 305 307 311 315 320 322
291 293 297 299 300 301 303 305 309 314 319 322 325 325 325 324 322 320 318 317 317 316 316 316 316 316 315 315 314 314 314 315 317 317 318 318 319 321 323 324 324 324 324 325 327 330 330 329 327 326 324 321 318 317 315 314 311 308 304 301 300 300 301 302 303 307 314 320 323
287 290 292 294 296 299 303 307 311 316 319 322 323 324 323 321 319 317 316 315 315 315 315 316 316 316 315 314 314 314 315 316 317 318 319 320 322 323 325 326 326 326 325 326 328 331 331 329 327 325 323 321 319 317 314 311 307 304 302 301 301 302 301 300 300 304 312 320 322
290 291 293 296 300 303 307 311 314 317 320 321 322 322 321 319 316 315 314 314 314 315 315 316 316 316 315 314 314 314 315 317 318 320 321 322 324 325 326 327 327 326 325 326 329 332 332 328 325 324 322 322 319 316 312 308 305 303 303 304 305 305 303 300 299 305 314 320 320
294 297 301 304 307 310 312 315 317 319 320 321 321 320 318 315 313 313 313 313 314 315 316 316 316 315 314 314 314 315 316 318 320 322 323 324 325 326 327 327 327 326 325 326 330 332 331 327 324 323 323 324 321 315 309 306 305 305 306 307 308 308 306 304 307 314 319 320 317
303 308 311 314 315 316 317 319 319 319 319 319 317 316 314 312 312 312 313 314 315 316 316 316 316 315 315 315 316 317 318 320 322 324 325 325 326 326 326 326 326 325 325 327 331 331 329 325 323 323 325 325 321 314 308 306 306 307 308 309 311 313 314 314 317 320 320 318 315
313 317 319 320 320 320 319 319 318 317 316 315 313 312 311 311 311 313 314 315 316 316 317 317 317 317 317 317 318 320 321 323 324 324 325 325 325 325 324 324 324 324 325 328 330 330 328 325 324 324 326 325 319 311 307 305 306 307 309 311 313 314 314 315 316 316 316 314 311
320 322 322 322 321 320 318 317 315 313 312 311 311 310 310 312 313 315 316 317 318 318 318 317 317 318 318 319 321 322 323 324 324 324 324 324 323 322 322 322 323 323 325 328 330 330 328 326 325 326 326 324 317 310 306 304 303 304 306 308 309 309 309 310 310 310 310 308 307
322 321 321 320 319 317 315 313 312 311 310 310 310 311 312 314 317 318 319 319 319 318 318 318 318 319 320 321 323 324 325 324 323 323 322 322 321 320 320 320 322 323 325 327 329 329 328 326 326 327 327 323 316 310 306 302 300 300 301 303 305 306 307 308 308 308 306 305 304
320 318 317 316 316 314 312 311 310 310 310 310 311 313 316 318 320 321 320 320 320 319 318 318 319 320 321 323 324 325 324 323 322 321 320 320 319 318 318 319 321 323 325 326 327 327 327 326 326 327 326 321 314 309 305 302 300 299 300 303 305 307 310 312 313 311 308 305 305
317 316 314 313 312 312 310 310 310 310 310 312 314 317 319 321 322 322 322 321 320 319 319 319 320 321 323 323 324 323 322 321 320 319 318 318 317 317 317 319 321 322 324 325 325 325 325 325 326 327 325 319 312 307 304 303 303 304 306 308 311 314 317 320 322 320 316 311 310
315 313 311 310 309 309 309 309 309 310 311 314 317 320 322 322 323 322 321 320 320 319 319 320 321 322 323 322 321 320 319 319 318 317 316 316 316 316 317 319 320 322 322 323 323 323 323 324 325 326 323 317 310 306 305 306 308 309 312 314 317 320 325 329 330 329 324 319 317
311 310 308 307 307 307 307 308 309 311 314 317 320 322 323 323 322 321 320 320 319 319 320 321 322 322 322 321 319 317 317 317 317 316 315 315 315 316 317 318 319 320 321 321 321 322 322 323 324 324 321 315 310 309 309 310 312 313 315 317 320 323 326 328 328 327 325 323 323
308 307 306 305 305 306 307 309 311 314 317 320 322 323 323 322 321 320 319 319 319 319 320 320 320 320 320 319 317 316 315 316 316 316 315 314 314 315 315 316 317 318 320 321 322 322 323 323 323 323 320 315 314 314 313 313 313 314 316 319 322 323 323 323 323 323 323 325 326
305 304 304 304 305 306 308 311 314 317 320 322 322 322 321 320 319 319 319 319 319 319 319 319 318 318 317 316 315 315 316 317 317 317 316 314 314 314 315 316 318 320 321 323 324 324 324 323 323 322 321 319 318 316 314 314 314 316 318 322 324 325 324 323 323 323 324 325 326